[[{"header":{"parameterUnit":"m.s-1","parameterCategory":1,"la1":30.2991,"la2":30.254,"lo1":-89.0895,"lo2":-89.0444,"dy":0.0017,"dx":0.0017,"nx":28,"ny":28,"refTime":"2025-03-30T09:00:00:Z","depth":0,"parameterNumber":2,"parameterNumberName":"U-component_of_WINDS"},"data":[0,0,0,0,0,0,0,0,0,0,0,0,0,0,0,0,0,0,0,0,0,0,0,0,0,0,0,0,0,0,0,0,0,0,0,0,0,0,0,0,0,0,0,0,0,0,0,0,0,0,0,0,0,0,0,0,0,0,-4.5432,-4.5434,0,-4.5665,-4.5668,-4.567,-4.5761,-4.576,-4.576,-4.5759,-4.5994,-4.6,-4.6007,0,0,0,0,0,0,0,0,0,0,0,0,0,-4.506,-4.5067,-4.5432,-4.5435,-4.5438,-4.5665,-4.5668,-4.5671,-4.5761,-4.576,-4.5759,-4.5759,-4.5992,-4.6,-4.6008,0,0,0,0,0,0,0,0,0,0,0,0,0,-4.525,-4.5069,-4.5431,-4.551,-4.5519,-4.5664,-4.5668,-4.5672,-4.5761,-4.576,-4.5759,-4.5758,-4.5989,-4.5999,-4.6009,-4.6091,0,0,-4.604,-4.6045,0,0,0,0,0,0,0,0,-4.5239,-4.5264,-4.5495,-4.5505,-4.5516,-4.5683,-4.5623,-4.5812,-4.5761,-4.5669,-4.5759,-4.5758,-4.5891,-4.5909,-4.5955,-4.6102,-4.6112,-4.6041,-4.6047,-4.6052,-4.6055,0,0,0,0,0,0,0,-4.5226,-4.5254,-4.5524,-4.5499,-4.5511,-4.5532,-4.5558,-4.5659,-4.5782,-4.5677,-4.5684,-4.5711,-4.5896,-4.5945,-4.5961,-4.6116,-4.6041,-4.605,-4.6056,-4.606,-4.6342,-4.6343,0,0,0,0,0,0,-4.52,-4.5243,-4.5517,-4.5531,-4.5372,-4.554,-4.5569,-4.563,-4.5782,-4.5804,-4.5711,-4.5714,-4.5928,-4.5949,-4.597,-4.6076,-4.6052,-4.6061,-4.6067,-4.6341,-4.6342,-4.6344,0,0,0,0,0,0,-4.5192,-4.5224,-4.5507,-4.5389,-4.5427,-4.5547,-4.5615,-4.5635,-4.5684,-4.5808,-4.583,-4.5739,-4.5928,-4.5955,-4.6061,-4.6085,-4.6066,-4.6075,-4.6339,-4.6341,-4.6343,-4.6289,0,0,0,0,0,0,-4.5181,-4.522,-4.5254,-4.5389,-4.5433,-4.5595,-4.5617,-4.564,-4.5702,-4.5708,-4.5839,-4.586,-4.5929,-4.6045,-4.6071,-4.6099,-4.6083,-4.6338,-4.634,-4.6343,-4.6289,-4.6288,-4.6288,0,0,0,0,0,-4.5167,-4.5228,-4.5255,-4.5288,-4.5477,-4.5596,-4.5621,-4.5701,-4.5704,-4.5738,-4.5817,-4.5856,-4.6078,-4.6055,-4.6085,-4.6116,-4.6336,-4.6339,-4.6342,-4.6289,-4.6289,-4.6288,0,0,0,0,0,0,-4.5092,-4.5248,-4.5279,-4.5386,-4.5477,-4.5612,-4.5657,-4.5698,-4.579,-4.5791,-4.5885,-4.5914,-4.6011,-4.6075,-4.6046,-4.6204,-4.621,-4.6219,-4.6159,-4.616,-4.616,-4.6142,-4.6092,0,0,0,0,0,-4.5088,-4.5173,-4.5304,-4.5385,-4.543,-4.5535,-4.559,-4.5644,-4.5742,-4.5781,-4.5868,-4.596,-4.6051,-4.6109,-4.62,-4.6298,-4.6328,-4.6335,-4.6335,-4.6334,-4.634,-4.6397,-4.6401,-4.6354,-4.6354,-4.6354,0,0,-4.508,-4.5176,-4.5223,-4.5373,-4.545,-4.5535,-4.5567,-4.5656,-4.5719,-4.5794,-4.5899,-4.5966,-4.6075,-4.6178,-4.6227,-4.6233,-4.636,-4.6338,-4.6336,-4.6343,-4.64,-4.6404,-4.6408,-4.6356,-4.6355,-4.6355,0,0,-4.5109,-4.519,-4.5267,-4.5344,-4.5461,-4.5531,-4.5549,-4.5677,-4.5725,-4.5832,-4.589,-4.5966,-4.6121,-4.6197,-4.6255,-4.6312,-4.6351,-4.6339,-4.6337,-4.6391,-4.6395,-4.6399,-4.6418,-4.6424,-4.6345,-4.6345,-4.6345,0,-4.5084,-4.5215,-4.5301,-4.5387,-4.545,-4.5523,-4.56,-4.567,-4.581,-4.5852,-4.5857,-4.6053,-4.6132,-4.6253,-4.6266,-4.6312,-4.6335,-4.6324,-4.6388,-4.6392,-4.6397,-4.6417,-4.6424,-4.6343,-4.6343,-4.6343,-4.6344,0,-4.5178,-4.5268,-4.5316,-4.5451,-4.552,-4.5601,-4.5697,-4.5756,-4.5804,-4.5872,-4.598,-4.6077,-4.6189,-4.6221,-4.6268,-4.6349,-4.6349,-4.637,-4.6378,-4.6398,-4.6418,-4.6426,-4.634,-4.634,-4.6341,-4.6342,0,0,-4.5166,-4.5347,-4.5363,-4.5425,-4.5559,-4.563,-4.5713,-4.5824,-4.5872,-4.5966,-4.6038,-4.6167,-4.6188,-4.6254,-4.631,-4.6357,-4.6395,-4.6373,-4.6377,-4.6373,-4.6489,-4.6472,-4.6479,-4.6422,-4.6424,-4.6425,-4.648,0,-4.5212,-4.5367,-4.5446,-4.5566,-4.565,-4.572,-4.5793,-4.5882,-4.5948,-4.6028,-4.6101,-4.6191,-4.6211,-4.6252,-4.6302,-4.638,-4.642,-4.6377,-4.6489,-4.6491,-4.6458,-4.649,-4.6473,-4.6519,-4.6488,-4.649,-4.6491,0,-4.5287,-4.5381,-4.551,-4.5634,-4.5672,-4.5737,-4.5844,-4.592,-4.6022,-4.6067,-4.6141,-4.6196,-4.6285,-4.6287,-4.6411,-4.638,-4.643,-4.6476,-4.6479,-4.6492,-4.6492,-4.6503,-4.6536,-4.6543,-4.6504,-4.6503,-4.6502,0,-4.5264,-4.5423,-4.5521,-4.5571,-4.5719,-4.5762,-4.5826,-4.5928,-4.5989,-4.6082,-4.6122,-4.6224,-4.6279,-4.6356,-4.6436,-4.643,-4.6552,-4.6561,-4.6591,-4.6589,-4.6613,-4.661,-4.6654,-4.6646,-4.6646,-4.6646,-4.6645,0,-4.5307,-4.5383,-4.5512,-4.5572,-4.5659,-4.5748,-4.5831,-4.59,-4.599,-4.6063,-4.613,-4.6197,-4.6299,-4.6379,-4.6442,-4.6535,-4.6559,-4.6597,-4.6613,-4.6591,-4.6586,-4.6625,-4.6623,-4.6648,-4.6647,-4.6647,-4.6646,0,-4.5296,-4.5386,-4.5497,-4.5628,-4.5663,-4.572,-4.5832,-4.5892,-4.5962,-4.6054,-4.608,-4.6189,-4.6286,-4.6374,-4.6503,-4.6546,-4.664,-4.666,-4.6605,-4.6614,-4.6639,-4.6635,-4.6708,-4.6722,-4.6704,-4.6705,-4.6705,0,-4.5317,-4.5378,-4.5515,-4.557,-4.5632,-4.5719,-4.5782,-4.5872,-4.5935,-4.6056,-4.6101,-4.6203,-4.629,-4.6442,-4.6531,-4.663,-4.6653,-4.6671,-4.6668,-4.6644,-4.6652,-4.6647,-4.6654,-4.667,-4.667,-4.667,-4.667,0,-4.5346,-4.5387,-4.5476,-4.558,-4.5653,-4.574,-4.5828,-4.5868,-4.5975,-4.6041,-4.6142,-4.6209,-4.6341,-4.6442,-4.655,-4.6614,-4.6659,-4.667,-4.6682,-4.666,-4.6626,-4.6644,-4.6602,-4.6668,-4.6668,-4.6668,-4.6668,-4.6668,-4.5352,-4.5408,-4.5514,-4.561,-4.5686,-4.5767,-4.5829,-4.5907,-4.5993,-4.6109,-4.6156,-4.6258,-4.6359,-4.651,-4.6573,-4.6654,-4.6662,-4.668,-4.6684,-4.6687,-4.6683,-4.6613,-4.6674,-4.6674,-4.6674,-4.6674,-4.6674,0,-4.5383,-4.5454,-4.5542,-4.5664,-4.5739,-4.5776,-4.5875,-4.5936,-4.6025,-4.6116,-4.62,-4.6315,-4.6413,-4.651,-4.6613,-4.6658,-4.6681,-4.6682,-4.6679,-4.6693,-4.6669,-4.6648,-4.6661,-4.6661,-4.6661,-4.6661,-4.6661,-4.6661,-4.5408,-4.5505,-4.5559,-4.5694,-4.5765,-4.5867,-4.592,-4.5994,-4.6067,-4.6193,-4.6275,-4.6338,-4.6432,-4.6541,-4.6632,-4.6658,-4.6693,-4.6687,-4.6719,-4.6695,-4.6695,-4.6695,-4.6676,-4.6694,-4.6694,-4.6736,-4.6736,-4.6737]},{"header":{"parameterUnit":"m.s-1","parameterCategory":1,"la1":30.2991,"la2":30.254,"lo1":-89.0895,"lo2":-89.0444,"dy":0.0017,"dx":0.0017,"nx":28,"ny":28,"refTime":"2025-03-30T09:00:00:Z","depth":0,"parameterNumber":3,"parameterNumberName":"V-component_of_WINDS"},"data":[0,0,0,0,0,0,0,0,0,0,0,0,0,0,0,0,0,0,0,0,0,0,0,0,0,0,0,0,0,0,0,0,0,0,0,0,0,0,0,0,0,0,0,0,0,0,0,0,0,0,0,0,0,0,0,0,0,0,4.8872,4.8872,0,4.8888,4.8888,4.8888,4.8845,4.8844,4.8842,4.8841,4.8858,4.8859,4.8861,0,0,0,0,0,0,0,0,0,0,0,0,0,4.8807,4.8809,4.8872,4.8872,4.8872,4.8888,4.8888,4.8888,4.8845,4.8844,4.8842,4.8841,4.8857,4.8859,4.8861,0,0,0,0,0,0,0,0,0,0,0,0,0,4.883,4.8809,4.8872,4.8853,4.8851,4.8888,4.8888,4.8888,4.8846,4.8844,4.8842,4.884,4.8856,4.8859,4.8861,4.8917,0,0,4.8869,4.887,0,0,0,0,0,0,0,0,4.8829,4.8833,4.8856,4.8854,4.8853,4.8862,4.8871,4.8898,4.8846,4.8848,4.8841,4.8839,4.8861,4.8863,4.887,4.8918,4.8918,4.8869,4.8871,4.8872,4.8873,0,0,0,0,0,0,0,4.8828,4.8832,4.8878,4.8856,4.8854,4.8844,4.8845,4.8876,4.8865,4.8848,4.8844,4.8847,4.886,4.8868,4.887,4.8919,4.8869,4.8871,4.8873,4.8874,4.9015,4.9017,0,0,0,0,0,0,4.8828,4.8831,4.8878,4.8879,4.8836,4.8847,4.8848,4.8861,4.8865,4.8864,4.8849,4.8845,4.8865,4.8867,4.8871,4.8937,4.8872,4.8874,4.8876,4.9013,4.9016,4.9018,0,0,0,0,0,0,4.8827,4.8833,4.8877,4.8854,4.8859,4.885,4.8865,4.8863,4.8871,4.8866,4.8864,4.8859,4.8863,4.8867,4.8906,4.8937,4.8875,4.8878,4.901,4.9014,4.9017,4.9071,0,0,0,0,0,0,4.8825,4.8833,4.8853,4.8855,4.886,4.8912,4.8867,4.8864,4.8875,4.887,4.8875,4.8874,4.8862,4.8903,4.8909,4.894,4.888,4.9007,4.9012,4.9016,4.9066,4.9075,4.9083,0,0,0,0,0,4.8823,4.8867,4.8854,4.886,4.8886,4.8914,4.8917,4.8902,4.8878,4.8899,4.8896,4.8873,4.8933,4.8907,4.8914,4.8946,4.9005,4.9011,4.9015,4.9062,4.9074,4.9083,0,0,0,0,0,0,4.8869,4.8867,4.8853,4.8898,4.8907,4.8906,4.8932,4.8915,4.893,4.8925,4.8907,4.8908,4.8951,4.8952,4.8923,4.9001,4.8965,4.8972,4.8999,4.9009,4.9018,4.9017,4.8882,0,0,0,0,0,4.8885,4.8907,4.8904,4.8945,4.895,4.8941,4.8952,4.8941,4.8949,4.8952,4.8952,4.896,4.8981,4.8995,4.9014,4.9066,4.9067,4.9092,4.91,4.9108,4.9114,4.9143,4.9154,4.9034,4.9034,4.9034,0,0,4.8917,4.8919,4.8934,4.8955,4.8959,4.8984,4.8944,4.8971,4.899,4.8956,4.8993,4.8994,4.9002,4.9049,4.9069,4.9051,4.9147,4.9114,4.912,4.9122,4.915,4.9161,4.9171,4.9038,4.9037,4.9037,0,0,4.8988,4.8991,4.9026,4.9033,4.9041,4.9035,4.9043,4.9046,4.9045,4.9083,4.9058,4.908,4.9116,4.9124,4.9133,4.921,4.919,4.9216,4.9262,4.9291,4.9301,4.9309,4.9338,4.9348,4.9222,4.9222,4.9223,0,4.9027,4.9063,4.9047,4.9077,4.9087,4.9058,4.9094,4.9101,4.9115,4.9124,4.9103,4.9149,4.9153,4.9202,4.9221,4.9228,4.9239,4.9216,4.93,4.9309,4.9316,4.9343,4.9354,4.9226,4.9225,4.9225,4.9225,0,4.9111,4.9137,4.9164,4.9179,4.9193,4.9226,4.9216,4.9231,4.9219,4.9216,4.9255,4.9259,4.9279,4.9289,4.9277,4.9337,4.9326,4.9303,4.9267,4.9331,4.9357,4.9367,4.923,4.9229,4.9228,4.9227,0,0,4.9211,4.9218,4.9229,4.9236,4.9244,4.9263,4.9296,4.9316,4.933,4.9342,4.9369,4.9401,4.9381,4.9391,4.938,4.9405,4.9468,4.938,4.938,4.9397,4.9536,4.9554,4.9566,4.9455,4.9457,4.9459,4.9536,0,4.9283,4.9338,4.9325,4.938,4.9404,4.9378,4.9407,4.9415,4.9413,4.9434,4.9432,4.9456,4.9426,4.9432,4.9456,4.9455,4.9496,4.9449,4.9482,4.9483,4.9481,4.9579,4.9597,4.967,4.9546,4.9547,4.9549,0,4.9373,4.9389,4.9446,4.9452,4.9462,4.9487,4.9505,4.9525,4.9535,4.9532,4.9544,4.9529,4.9562,4.9526,4.9572,4.9541,4.9554,4.9555,4.9558,4.9561,4.952,4.9586,4.9693,4.9704,4.9564,4.9563,4.9561,0,4.9442,4.9477,4.9516,4.9523,4.9531,4.955,4.9554,4.9562,4.9575,4.9591,4.96,4.962,4.9631,4.9647,4.9638,4.9612,4.9687,4.9649,4.9686,4.9686,4.9703,4.9702,4.9815,4.971,4.971,4.971,4.9709,0,4.9524,4.956,4.9548,4.9572,4.9613,4.9598,4.9639,4.964,4.9648,4.9673,4.9651,4.9675,4.9661,4.9685,4.9678,4.9718,4.9723,4.9722,4.972,4.9725,4.9725,4.9733,4.9728,4.9713,4.9712,4.9711,4.9711,0,4.9607,4.96,4.9642,4.9646,4.9648,4.9678,4.9682,4.9705,4.9702,4.9734,4.9741,4.9736,4.9762,4.9755,4.9783,4.9779,4.9831,4.9822,4.9827,4.9826,4.9864,4.9861,4.9986,5.0002,4.9886,4.9887,4.9888,0,4.966,4.9688,4.9695,4.9711,4.9716,4.9741,4.9755,4.9742,4.9758,4.9772,4.9794,4.9819,4.9838,4.9882,4.9881,4.9904,4.9896,4.9938,4.9899,4.9903,4.9898,4.9897,4.99,4.9946,4.9947,4.9948,4.9949,0,4.9756,4.9751,4.9772,4.9792,4.9809,4.9824,4.9837,4.9851,4.984,4.9859,4.9885,4.99,4.993,4.9956,4.9976,4.9981,4.9964,4.9962,4.9972,4.9977,4.998,4.998,4.985,4.9959,4.9958,4.9957,4.9957,4.9956,4.9826,4.9851,4.986,4.9884,4.9893,4.9906,4.9929,4.9929,4.9951,4.9974,4.9966,4.9997,5.0008,5.0034,5.0042,5.0067,5.0051,5.0066,5.0069,5.0073,5.0079,4.9975,5.0071,5.0071,5.007,5.007,5.007,0,4.9922,4.9927,4.9949,4.9969,4.9989,4.997,4.9985,5.0002,5.003,5.0042,5.0061,5.0093,5.0118,5.0121,5.0144,5.0164,5.0157,5.0171,5.017,5.0172,5.0091,5.0081,5.0177,5.0177,5.0177,5.0177,5.0177,5.0176,4.9974,5.0014,5.0011,5.0056,5.0061,5.0092,5.0102,5.0114,5.0124,5.016,5.0181,5.0182,5.0191,5.0215,5.0238,5.0238,5.0248,5.0266,5.0263,5.0188,5.0177,5.0167,5.0157,5.0268,5.0268,5.0342,5.0343,5.0343]}]]